EHI
10 10 9 10 17 26 31 33 32 28 23 18 12 8 5 3 3 2 1 3 5 6 8 9 10 11 9 7 4 3 3 2 1 1 0 0 0 0 0 0 1 0 0
16 15 13 13 19 28 32 34 33 29 26 21 15 8 5 5 5 4 4 6 7 8 10 11 11 12 12 9 7 4 3 3 2 2 1 0 0 0 0 0 1 1 1
20 20 19 18 22 28 31 34 35 33 31 28 21 13 9 9 8 7 7 9 10 11 11 11 12 13 14 12 9 5 3 3 3 3 2 1 1 1 1 1 1 1 2
21 21 22 22 23 26 29 34 39 39 38 36 30 24 18 12 10 10 10 11 12 10 9 10 12 14 15 12 8 4 3 3 3 3 3 2 2 3 3 2 2 2 2
20 22 22 22 23 25 29 36 44 47 46 42 38 34 25 17 13 13 15 16 14 10 7 9 13 15 13 9 5 5 5 4 5 4 4 4 4 4 4 3 3 3 1
19 23 25 25 26 27 30 38 46 51 51 46 42 38 31 25 21 20 21 20 16 11 9 10 14 16 13 7 5 6 7 8 9 8 5 3 3 4 5 5 4 3 2
20 25 30 32 33 33 35 40 46 51 51 47 42 38 34 31 28 25 24 22 18 15 14 14 15 16 13 7 5 6 8 9 11 10 6 3 3 4 6 6 5 4 3
26 29 35 38 38 38 39 42 47 50 48 43 39 37 34 31 29 28 26 24 23 22 22 20 17 14 10 6 6 7 7 8 9 8 6 5 5 5 6 5 5 4 4
34 38 41 42 41 40 41 44 49 51 47 41 36 33 32 31 29 29 29 27 26 25 24 22 17 12 7 5 6 7 7 7 6 6 6 7 7 7 6 6 5 5 5
38 43 48 49 44 40 40 43 49 52 49 44 38 33 32 33 34 34 34 32 29 27 25 22 18 13 8 8 7 8 8 8 7 8 8 9 11 11 9 8 7 7 7
36 41 49 52 50 44 42 44 48 50 50 48 42 36 35 37 39 39 40 38 34 32 30 27 22 15 11 12 13 12 12 12 11 11 11 11 12 13 12 10 9 9 9
34 40 49 55 55 51 46 45 47 48 47 46 43 40 39 41 42 42 44 44 41 39 37 34 28 21 18 18 18 17 16 14 13 14 13 12 12 12 11 9 8 8 8
36 41 50 56 57 53 47 45 45 45 44 42 43 43 44 44 43 43 44 46 46 44 42 38 33 28 24 22 21 19 15 13 12 13 13 13 12 10 8 7 6 5 5
40 44 51 56 56 52 48 45 45 46 45 43 45 48 49 48 44 42 44 47 48 48 45 40 37 32 27 23 21 17 14 11 11 12 12 11 10 8 6 6 6 5 4
44 47 52 56 56 54 51 49 49 51 50 46 46 51 54 53 48 45 47 50 52 51 46 41 36 30 21 17 16 14 12 12 11 10 9 8 7 5 3 4 5 5 4
42 43 47 53 55 55 54 52 53 56 57 52 49 53 58 59 55 51 53 56 55 52 47 40 34 25 14 8 8 8 10 11 10 8 6 5 4 2 1 1 1 2 3
37 36 40 47 49 49 51 52 52 57 60 57 54 56 59 60 57 55 56 57 57 54 48 40 33 23 11 5 3 4 6 8 7 5 4 3 3 3 2 1 1 1 2
35 35 37 40 39 39 43 47 49 54 58 58 56 57 58 55 53 53 54 55 56 54 47 39 31 22 12 5 2 2 4 6 6 6 5 4 4 4 3 2 2 3 3
37 36 36 37 37 36 37 40 43 48 54 57 58 58 56 52 48 48 52 53 52 48 41 35 29 22 13 6 2 3 6 9 10 9 6 4 3 3 2 3 3 3 2
39 37 36 38 41 41 38 36 38 43 51 57 60 60 56 50 45 45 48 48 45 41 36 32 28 22 15 6 1 4 10 14 14 12 7 3 1 1 1 2 3 3 2
37 37 36 38 41 41 39 37 37 41 47 53 57 58 55 47 42 42 42 41 39 36 34 30 25 22 16 8 2 3 10 14 15 13 8 3 1 0 0 1 2 2 2
33 34 34 34 37 39 39 38 38 40 43 47 51 52 50 46 42 41 38 37 36 34 31 28 25 22 17 9 2 1 4 9 12 12 8 4 1 0 0 0 1 1 1
27 27 27 28 32 36 37 38 39 40 41 44 46 46 45 44 41 38 36 36 35 32 27 24 22 21 17 10 4 1 1 3 6 8 5 3 1 0 0 0 0 0 0
21 20 21 23 28 34 35 36 37 39 40 42 42 40 37 36 33 31 31 33 33 30 27 22 19 18 16 12 8 4 2 2 3 4 4 2 0 0 0 1 1 0 0
18 16 17 20 24 28 31 33 34 35 36 37 37 33 29 27 25 23 24 26 25 23 21 20 18 16 14 10 7 5 3 2 2 3 4 2 0 0 1 2 2 1 0
16 15 16 20 22 23 27 30 31 32 34 34 32 29 25 24 22 19 17 17 16 13 12 14 15 13 9 5 4 3 2 1 1 2 4 2 0 1 2 3 2 1 0
Wind_Speed
12 11 11 11 11 10 10 10 9 9 7 6 6 5 5 4 4 4 4 4 4 5 5 4 4 4 4 4 4 4 4 4 3 3 4 5 6 5 5 6 5 6 7
12 12 12 12 12 12 11 11 10 10 9 7 5 4 4 4 4 3 3 5 5 5 5 5 5 5 4 5 5 4 4 3 3 3 3 4 4 5 5 4 5 6 6
14 13 13 13 12 12 12 11 11 10 10 8 6 5 4 4 4 4 4 5 5 5 5 5 5 4 5 4 5 5 5 4 4 4 4 4 3 2 3 4 4 5 4
14 14 14 14 13 13 12 11 11 10 10 9 8 8 6 5 4 4 3 4 5 5 5 5 5 5 4 3 5 4 4 5 4 3 4 5 4 4 3 4 4 4 5
15 14 14 13 13 12 12 11 11 11 10 10 9 9 8 6 4 4 4 4 5 5 5 5 4 5 4 4 4 3 5 4 5 4 3 4 4 6 5 5 4 4 4
14 13 13 12 12 12 11 11 12 11 11 11 10 10 8 7 5 5 4 5 4 4 5 5 4 5 4 4 4 4 5 4 5 5 4 4 4 4 5 6 6 5 4
12 13 14 14 13 13 13 12 12 12 11 11 11 10 9 8 8 7 6 5 4 4 4 4 4 4 4 4 4 4 5 5 5 5 4 4 5 5 5 6 6 6 4
11 12 13 13 13 13 13 13 12 12 11 11 10 10 10 8 7 7 6 5 4 3 3 4 5 4 4 4 3 4 4 4 5 6 5 5 5 5 5 5 6 6 5
9 10 11 11 12 12 12 12 12 11 11 11 10 9 9 9 7 6 7 6 5 4 5 5 5 4 4 3 3 3 3 3 4 4 4 4 3 4 4 5 5 6 6
7 8 9 10 10 11 11 11 11 11 10 10 9 8 9 9 8 7 7 6 5 5 5 5 5 4 4 4 3 3 2 3 3 3 3 4 3 3 3 4 4 5 6
6 7 7 8 9 10 10 10 10 10 10 9 9 8 8 8 8 7 7 7 6 6 6 5 5 4 4 4 3 3 3 3 2 3 3 3 4 3 3 3 4 4 4
4 6 7 7 8 9 9 10 10 10 10 9 9 9 8 8 8 8 8 7 7 7 6 6 5 5 4 4 4 3 3 3 3 3 3 3 3 3 3 3 4 4 4
3 5 6 6 6 7 8 8 9 9 9 9 9 9 9 9 9 8 7 7 7 7 6 6 6 5 4 4 4 3 3 3 3 3 3 3 3 3 3 4 4 4 4
3 4 5 5 5 6 7 7 8 8 8 8 9 9 9 8 8 7 7 7 7 7 7 6 6 5 5 4 4 4 4 3 2 2 2 2 3 3 3 3 4 4 5
1 2 4 5 5 5 6 7 7 7 7 8 8 8 8 7 7 7 7 7 7 7 6 6 5 5 4 4 4 4 4 3 2 2 2 1 2 3 4 4 4 4 4
1 1 2 3 4 5 6 6 7 7 7 8 8 7 7 7 7 6 6 6 6 6 6 6 5 5 3 3 2 3 3 3 3 2 2 1 2 1 0 2 4 5 5
3 3 2 3 3 4 5 6 6 7 8 8 7 7 8 7 7 6 6 6 6 6 6 5 5 5 3 4 4 3 3 3 2 2 2 2 0 1 1 2 3 2 1
5 4 3 3 3 4 4 4 6 6 7 7 7 7 7 7 6 6 6 6 6 6 6 6 6 5 4 5 4 4 4 3 2 2 2 2 1 1 2 3 2 1 0
6 5 5 4 3 3 3 4 5 6 7 7 7 7 6 6 6 6 6 6 6 6 6 6 6 6 5 5 5 5 4 3 3 2 1 1 1 3 4 3 2 2 1
6 5 5 4 3 2 3 4 5 6 7 7 6 6 6 7 7 7 6 5 5 6 6 5 5 5 5 5 5 5 4 4 3 3 3 3 1 1 3 3 3 3 2
5 5 5 4 3 3 3 4 4 5 5 5 5 6 6 6 7 6 5 5 5 5 5 5 4 4 4 6 6 4 3 3 3 3 3 3 3 1 2 4 2 2 4
5 5 4 4 3 3 3 4 4 4 4 5 5 5 5 5 5 6 6 5 5 5 6 5 5 4 4 4 5 5 3 2 2 2 1 3 4 3 2 1 1 2 5
5 5 5 4 4 3 3 4 3 3 3 4 5 5 5 4 4 6 5 5 5 5 5 5 5 4 4 5 5 7 6 3 2 1 3 3 4 4 3 2 2 3 3
5 5 5 4 4 4 3 3 3 3 3 5 5 5 4 4 3 3 4 4 4 4 5 5 5 5 5 4 5 5 5 5 4 3 5 6 4 3 1 3 3 2 1
5 5 5 5 5 4 3 2 2 2 3 4 5 5 4 4 4 3 2 3 3 3 4 4 4 4 5 5 4 4 4 4 4 4 4 3 3 3 2 2 2 1 1
5 5 5 5 5 4 3 2 2 2 3 4 4 4 4 4 4 4 3 4 3 4 4 2 1 2 2 5 6 5 4 4 4 5 4 3 3 3 3 2 2 1 1
Wind_Direction
198 195 197 201 199 199 200 203 205 197 201 206 211 208 212 220 218 218 216 226 229 223 223 236 214 227 227 234 235 237 233 240 244 259 254 241 235 238 233 237 244 236 235
197 195 198 200 201 199 200 200 202 199 202 203 212 218 224 222 223 230 213 227 229 230 226 226 227 223 227 227 233 233 249 247 226 249 264 253 221 216 226 224 227 240 239
200 196 199 202 202 201 201 201 200 198 202 201 205 203 207 221 212 215 212 220 226 231 241 234 237 232 234 224 227 229 239 252 244 238 259 270 269 275 215 223 230 233 240
206 201 198 201 202 201 198 197 194 195 195 198 207 209 217 221 220 227 219 214 218 228 230 231 233 236 241 234 236 226 239 251 254 242 243 261 290 280 269 229 221 228 239
208 204 202 199 201 197 194 190 191 193 194 198 203 211 221 223 220 223 215 227 214 218 226 225 228 231 241 241 250 245 247 244 250 255 253 249 243 247 259 268 259 246 243
207 205 202 196 196 193 191 187 188 193 194 198 203 211 219 222 226 223 220 217 209 214 218 221 220 230 242 242 245 243 239 247 256 261 259 257 255 254 256 266 267 264 261
203 200 197 194 194 193 191 188 188 193 195 199 204 208 214 216 221 228 221 226 219 210 205 219 216 228 232 243 247 243 253 249 252 253 256 258 261 268 266 269 276 278 270
195 194 193 193 193 191 190 190 190 193 195 199 203 207 209 214 216 216 230 222 229 222 191 204 215 223 231 237 237 248 246 250 257 260 259 260 259 264 264 268 276 278 271
186 185 185 188 189 188 187 188 188 190 194 198 200 205 209 218 219 209 216 223 219 214 199 206 213 220 222 230 235 246 252 254 257 267 260 263 271 269 271 269 265 272 280
177 175 178 180 182 181 179 182 184 187 189 192 198 199 205 209 213 217 217 220 217 215 206 208 211 210 209 209 220 230 223 241 251 268 285 278 276 276 274 277 274 266 272
170 168 170 172 174 174 173 177 179 183 186 190 192 199 201 203 205 210 211 209 211 204 206 209 210 210 213 211 211 235 230 242 254 265 267 274 288 286 282 278 277 276 275
163 162 164 167 171 174 175 178 182 185 188 189 190 195 198 201 203 206 208 204 202 204 202 203 204 207 208 210 217 231 237 246 254 264 272 279 278 276 288 290 288 288 284
159 165 164 168 171 179 181 182 186 189 189 189 193 195 198 200 205 207 204 200 198 198 196 197 201 203 203 206 217 227 234 243 251 259 267 279 288 286 290 288 290 287 281
149 172 171 172 179 193 191 192 194 194 193 190 194 197 201 202 204 205 205 202 199 196 196 195 195 196 200 204 212 216 222 230 235 250 260 272 285 288 287 278 283 290 289
139 175 183 184 187 194 197 199 200 195 194 194 199 200 200 198 201 203 205 204 201 199 193 193 193 196 199 206 207 211 208 208 220 233 253 286 17 6 330 318 313 302 291
294 243 211 200 200 201 206 204 201 194 192 198 202 197 193 192 194 200 203 200 196 194 190 190 185 189 195 125 143 233 204 202 214 224 241 214 182 153 234 337 336 333 309
324 298 267 247 231 219 211 210 206 193 193 197 196 191 189 188 187 187 186 189 183 180 183 184 186 185 165 145 165 215 219 210 219 222 242 262 106 234 244 203 212 227 307
324 311 295 272 252 235 223 214 202 195 193 193 191 189 189 189 180 177 182 187 185 180 184 185 187 183 167 155 168 193 204 202 199 212 237 262 275 356 318 274 251 251 277
324 318 307 291 276 248 229 219 205 198 197 195 193 189 185 182 181 184 184 185 185 187 187 187 188 186 164 155 168 194 192 190 193 194 178 247 203 42 331 277 265 262 242
329 325 313 300 289 278 238 224 217 207 205 201 194 185 181 182 185 188 187 186 187 188 184 181 182 182 167 155 168 205 208 194 190 176 158 99 48 52 315 270 265 264 274
323 321 313 302 299 287 257 232 225 219 213 205 198 189 182 183 183 179 179 181 185 183 180 172 172 171 166 159 170 203 229 209 201 195 186 136 131 166 270 276 278 303 290
321 319 312 303 298 277 255 244 236 233 212 197 194 193 185 181 176 173 176 178 179 179 178 174 171 165 166 169 174 185 227 285 210 205 184 121 138 171 216 266 355 293 274
321 318 314 310 297 280 265 254 245 238 216 197 190 183 175 171 175 175 176 177 180 188 187 184 182 174 173 164 167 178 184 209 213 147 96 122 159 180 175 166 233 246 250
311 310 305 299 294 285 268 253 226 207 204 198 191 177 173 172 171 177 181 178 173 189 192 190 188 181 178 179 176 182 176 177 184 169 144 158 175 204 143 163 193 226 301
301 302 298 295 294 293 279 255 237 207 209 199 188 181 176 173 175 180 176 182 164 182 198 199 199 197 194 183 177 186 182 192 187 181 176 179 173 184 184 182 179 190 191
298 298 296 295 295 288 269 251 220 202 214 219 204 193 184 180 186 172 142 77 112 120 124 120 209 177 153 144 157 165 158 163 177 191 183 185 191 197 197 196 183 183 210